Time,TemperatureF,DewpointF,PressureIn,WindDirection,WindDirectionDegrees,WindSpeedMPH,WindSpeedGustMPH,Humidity,HourlyPrecipIn,Conditions,Clouds,dailyrainin,SoftwareType,DateUTC
2013-06-12 00:01:00,45.0,37.0,30.14,NW,323,4.0,6.0,72,0.00,,,0.00,,2013-06-12 07:01:00,
2013-06-12 00:11:00,44.0,36.0,30.14,NW,323,3.0,5.0,73,0.00,,,0.00,,2013-06-12 07:11:00,
2013-06-12 00:22:00,44.0,36.0,30.14,NW,323,3.0,3.0,72,0.00,,,0.00,,2013-06-12 07:22:00,
2013-06-12 00:33:00,44.0,37.0,30.14,NW,323,2.0,3.0,75,0.00,,,0.00,,2013-06-12 07:33:00,
2013-06-12 00:43:00,43.0,36.0,30.14,NW,323,0.0,0.0,76,0.00,,,0.00,,2013-06-12 07:43:00,
2013-06-12 00:53:00,43.0,36.0,30.15,NW,323,0.0,0.0,76,0.00,,,0.00,,2013-06-12 07:53:00,
2013-06-12 01:01:00,43.0,37.0,30.14,NW,323,1.0,2.0,80,0.00,,,0.00,,2013-06-12 08:01:00,
2013-06-12 01:11:00,43.0,37.0,30.14,NW,323,2.0,3.0,79,0.00,,,0.00,,2013-06-12 08:11:00,
2013-06-12 01:22:00,42.0,37.0,30.14,NW,323,2.0,3.0,81,0.00,,,0.00,,2013-06-12 08:22:00,
2013-06-12 01:33:00,42.0,36.0,30.14,NW,323,1.0,2.0,79,0.00,,,0.00,,2013-06-12 08:33:00,
2013-06-12 01:42:00,42.0,36.0,30.14,NW,323,2.0,3.0,80,0.00,,,0.00,,2013-06-12 08:42:00,
2013-06-12 01:52:00,42.0,37.0,30.14,NW,323,3.0,5.0,81,0.00,,,0.00,,2013-06-12 08:52:00,
2013-06-12 02:01:00,42.0,36.0,30.14,NW,323,2.0,3.0,78,0.00,,,0.00,,2013-06-12 09:01:00,
2013-06-12 02:11:00,43.0,37.0,30.14,NW,323,2.0,6.0,78,0.00,,,0.00,,2013-06-12 09:11:00,
2013-06-12 02:22:00,41.0,36.0,30.14,NW,323,2.0,3.0,82,0.00,,,0.00,,2013-06-12 09:22:00,
2013-06-12 02:33:00,41.0,36.0,30.15,NW,323,0.0,0.0,82,0.00,,,0.00,,2013-06-12 09:33:00,
2013-06-12 02:42:00,41.0,36.0,30.15,NW,323,1.0,2.0,81,0.00,,,0.00,,2013-06-12 09:42:00,
2013-06-12 02:53:00,41.0,36.0,30.15,NW,323,1.0,3.0,82,0.00,,,0.00,,2013-06-12 09:53:00,
2013-06-12 03:01:00,40.0,36.0,30.15,NW,323,0.0,2.0,85,0.00,,,0.00,,2013-06-12 10:01:00,
2013-06-12 03:11:00,40.0,36.0,30.15,NW,323,2.0,3.0,85,0.00,,,0.00,,2013-06-12 10:11:00,
2013-06-12 03:22:00,40.0,36.0,30.15,NW,323,2.0,3.0,84,0.00,,,0.00,,2013-06-12 10:22:00,
2013-06-12 03:32:00,40.0,36.0,30.14,NW,323,1.0,3.0,84,0.00,,,0.00,,2013-06-12 10:32:00,
2013-06-12 03:42:00,40.0,36.0,30.14,NW,323,3.0,3.0,84,0.00,,,0.00,,2013-06-12 10:42:00,
2013-06-12 03:53:00,40.0,36.0,30.14,NW,323,1.0,2.0,84,0.00,,,0.00,,2013-06-12 10:53:00,
2013-06-12 04:01:00,39.0,35.0,30.14,NW,323,2.0,3.0,84,0.00,,,0.00,,2013-06-12 11:01:00,
2013-06-12 04:11:00,38.0,34.0,30.15,NW,323,2.0,3.0,86,0.00,,,0.00,,2013-06-12 11:11:00,
2013-06-12 04:23:00,36.0,33.0,30.15,NW,323,0.0,0.0,88,0.00,,,0.00,,2013-06-12 11:23:00,
2013-06-12 04:33:00,36.0,33.0,30.15,NW,323,0.0,1.0,88,0.00,,,0.00,,2013-06-12 11:33:00,
2013-06-12 04:42:00,37.0,33.0,30.15,SSW,195,5.0,7.0,86,0.00,,,0.00,,2013-06-12 11:42:00,
2013-06-12 04:53:00,37.0,33.0,30.16,SSW,211,6.0,7.0,84,0.00,,,0.00,,2013-06-12 11:53:00,
2013-06-12 05:01:00,38.0,33.0,30.16,SSW,209,6.0,7.0,82,0.00,,,0.00,,2013-06-12 12:01:00,
2013-06-12 05:11:00,39.0,34.0,30.16,SSW,208,6.0,7.0,81,0.00,,,0.00,,2013-06-12 12:11:00,
2013-06-12 05:23:00,40.0,35.0,30.16,SSW,208,4.0,6.0,81,0.00,,,0.00,,2013-06-12 12:23:00,
2013-06-12 05:33:00,41.0,35.0,30.16,SSW,208,5.0,6.0,80,0.00,,,0.00,,2013-06-12 12:33:00,
2013-06-12 05:42:00,41.0,35.0,30.16,SSW,208,4.0,6.0,80,0.00,,,0.00,,2013-06-12 12:42:00,
2013-06-12 05:53:00,41.0,35.0,30.16,SSW,208,2.0,3.0,80,0.00,,,0.00,,2013-06-12 12:53:00,
2013-06-12 06:01:00,39.0,34.0,30.16,SSW,208,3.0,3.0,81,0.00,,,0.00,,2013-06-12 13:01:00,
2013-06-12 06:11:00,37.0,32.0,30.16,SSW,208,3.0,5.0,83,0.00,,,0.00,,2013-06-12 13:11:00,
2013-06-12 06:22:00,37.0,33.0,30.17,SSW,209,1.0,3.0,84,0.00,,,0.00,,2013-06-12 13:22:00,
2013-06-12 06:32:00,38.0,34.0,30.17,SSW,209,0.0,1.0,84,0.00,,,0.00,,2013-06-12 13:32:00,
2013-06-12 06:43:00,38.0,33.0,30.17,SSW,209,0.0,0.0,83,0.00,,,0.00,,2013-06-12 13:43:00,
2013-06-12 06:53:00,38.0,33.0,30.17,SSW,209,0.0,0.0,83,0.00,,,0.00,,2013-06-12 13:53:00,
2013-06-12 07:01:00,39.0,34.0,30.17,SSW,209,0.0,1.0,82,0.00,,,0.00,,2013-06-12 14:01:00,
2013-06-12 07:11:00,40.0,34.0,30.17,SSW,209,0.0,0.0,79,0.00,,,0.00,,2013-06-12 14:11:00,
2013-06-12 07:23:00,41.0,35.0,30.17,SSW,209,0.0,1.0,79,0.00,,,0.00,,2013-06-12 14:23:00,
2013-06-12 07:33:00,44.0,36.0,30.17,SSW,209,0.0,2.0,72,0.00,,,0.00,,2013-06-12 14:33:00,
2013-06-12 07:43:00,46.0,36.0,30.17,SSW,209,2.0,3.0,69,0.00,,,0.00,,2013-06-12 14:43:00,
2013-06-12 08:11:00,46.0,36.0,30.17,SSW,205,3.0,5.0,67,0.00,,,0.00,,2013-06-12 15:11:00,
2013-06-12 08:23:00,47.0,37.0,30.17,SSW,204,3.0,5.0,67,0.00,,,0.00,,2013-06-12 15:23:00,
2013-06-12 08:32:00,48.0,37.0,30.17,South,189,3.0,7.0,66,0.00,,,0.00,,2013-06-12 15:32:00,
2013-06-12 08:43:00,49.0,38.0,30.17,SSE,155,2.0,5.0,65,0.00,,,0.00,,2013-06-12 15:43:00,
2013-06-12 08:52:00,50.0,38.0,30.17,SSE,155,2.0,3.0,62,0.00,,,0.00,,2013-06-12 15:52:00,
2013-06-12 09:32:00,52.0,37.0,30.16,NE,52,3.0,8.0,57,0.00,,,0.00,,2013-06-12 16:32:00,
2013-06-12 09:43:00,55.0,39.0,30.16,NNE,18,5.0,7.0,54,0.00,,,0.00,,2013-06-12 16:43:00,
2013-06-12 09:52:00,54.0,37.0,30.16,NNE,26,2.0,8.0,53,0.00,,,0.00,,2013-06-12 16:52:00,
2013-06-12 10:01:00,55.0,38.0,30.16,NE,38,3.0,5.0,52,0.00,,,0.00,,2013-06-12 17:01:00,
2013-06-12 10:11:00,56.0,39.0,30.16,NNE,18,2.0,3.0,52,0.00,,,0.00,,2013-06-12 17:11:00,
2013-06-12 10:22:00,56.0,37.0,30.16,NNW,338,1.0,5.0,49,0.00,,,0.00,,2013-06-12 17:22:00,
2013-06-12 10:32:00,55.0,37.0,30.16,North,4,3.0,7.0,51,0.00,,,0.00,,2013-06-12 17:32:00,
2013-06-12 10:42:00,56.0,37.0,30.16,North,0,1.0,7.0,49,0.00,,,0.00,,2013-06-12 17:42:00,
2013-06-12 10:52:00,58.0,38.0,30.16,NW,306,4.0,8.0,47,0.00,,,0.00,,2013-06-12 17:52:00,
2013-06-12 11:02:00,57.0,36.0,30.16,NNE,26,2.0,8.0,46,0.00,,,0.00,,2013-06-12 18:02:00,
2013-06-12 11:11:00,57.0,36.0,30.16,NNE,26,2.0,8.0,46,0.00,,,0.00,,2013-06-12 18:11:00,
2013-06-12 11:22:00,59.0,38.0,30.15,NE,39,5.0,10.0,46,0.00,,,0.00,,2013-06-12 18:22:00,
2013-06-12 11:32:00,60.0,37.0,30.15,SE,124,5.0,9.0,43,0.00,,,0.00,,2013-06-12 18:32:00,
2013-06-12 11:42:00,57.0,36.0,30.15,ENE,74,5.0,9.0,45,0.00,,,0.00,,2013-06-12 18:42:00,
2013-06-12 11:53:00,58.0,37.0,30.14,North,6,5.0,8.0,45,0.00,,,0.00,,2013-06-12 18:53:00,
2013-06-12 12:01:00,61.0,38.0,30.14,WNW,291,6.0,12.0,42,0.00,,,0.00,,2013-06-12 19:01:00,
2013-06-12 12:11:00,61.0,38.0,30.14,WNW,286,3.0,9.0,42,0.00,,,0.00,,2013-06-12 19:11:00,
2013-06-12 12:22:00,63.0,38.0,30.14,NNW,346,7.0,13.0,39,0.00,,,0.00,,2013-06-12 19:22:00,
2013-06-12 12:32:00,63.0,38.0,30.14,NNE,24,10.0,15.0,39,0.00,,,0.00,,2013-06-12 19:32:00,
2013-06-12 12:42:00,62.0,37.0,30.13,NNW,336,3.0,7.0,40,0.00,,,0.00,,2013-06-12 19:42:00,
2013-06-12 12:52:00,63.0,38.0,30.13,NNW,341,8.0,14.0,39,0.00,,,0.00,,2013-06-12 19:52:00,
2013-06-12 13:01:00,64.0,38.0,30.13,NNW,339,6.0,12.0,38,0.00,,,0.00,,2013-06-12 20:01:00,
2013-06-12 13:11:00,64.0,39.0,30.13,NNE,20,9.0,14.0,39,0.00,,,0.00,,2013-06-12 20:11:00,
2013-06-12 13:21:00,64.0,39.0,30.13,NNE,20,9.0,14.0,39,0.00,,,0.00,,2013-06-12 20:21:00,
2013-06-12 13:32:00,65.0,38.0,30.13,NE,38,6.0,12.0,37,0.00,,,0.00,,2013-06-12 20:32:00,
2013-06-12 13:42:00,65.0,38.0,30.13,North,359,5.0,10.0,37,0.00,,,0.00,,2013-06-12 20:42:00,
2013-06-12 13:54:00,63.0,37.0,30.13,WNW,303,4.0,14.0,38,0.00,,,0.00,,2013-06-12 20:54:00,
2013-06-12 14:01:00,64.0,37.0,30.12,North,0,7.0,12.0,37,0.00,,,0.00,,2013-06-12 21:01:00,
2013-06-12 14:11:00,64.0,36.0,30.12,North,11,7.0,12.0,35,0.00,,,0.00,,2013-06-12 21:11:00,
2013-06-12 14:21:00,63.0,36.0,30.12,NNW,334,10.0,14.0,36,0.00,,,0.00,,2013-06-12 21:21:00,
2013-06-12 14:33:00,65.0,37.0,30.12,WNW,282,6.0,10.0,35,0.00,,,0.00,,2013-06-12 21:33:00,
2013-06-12 14:42:00,66.0,37.0,30.12,NNW,339,10.0,17.0,34,0.00,,,0.00,,2013-06-12 21:42:00,
2013-06-12 14:52:00,65.0,36.0,30.12,NNW,327,9.0,18.0,34,0.00,,,0.00,,2013-06-12 21:52:00,
2013-06-12 15:01:00,65.0,36.0,30.12,NNW,327,9.0,18.0,34,0.00,,,0.00,,2013-06-12 22:01:00,
2013-06-12 15:11:00,65.0,36.0,30.12,NNW,327,9.0,18.0,34,0.00,,,0.00,,2013-06-12 22:11:00,
2013-06-12 15:22:00,66.0,36.0,30.12,NW,313,9.0,13.0,33,0.00,,,0.00,,2013-06-12 22:22:00,
2013-06-12 15:32:00,65.0,34.0,30.12,NW,323,5.0,15.0,32,0.00,,,0.00,,2013-06-12 22:32:00,
2013-06-12 15:42:00,65.0,36.0,30.12,NW,308,10.0,13.0,34,0.00,,,0.00,,2013-06-12 22:42:00,
2013-06-12 15:52:00,66.0,34.0,30.12,NNW,331,10.0,16.0,31,0.00,,,0.00,,2013-06-12 22:52:00,
2013-06-12 16:01:00,67.0,36.0,30.12,NNW,330,12.0,20.0,32,0.00,,,0.00,,2013-06-12 23:01:00,
2013-06-12 16:11:00,67.0,35.0,30.12,NNW,328,12.0,16.0,31,0.00,,,0.00,,2013-06-12 23:11:00,
2013-06-12 16:22:00,67.0,35.0,30.12,NNW,328,12.0,16.0,31,0.00,,,0.00,,2013-06-12 23:22:00,
2013-06-12 16:32:00,68.0,38.0,30.12,NNW,343,9.0,16.0,33,0.00,,,0.00,,2013-06-12 23:32:00,
2013-06-12 16:42:00,67.0,36.0,30.11,WNW,287,12.0,20.0,32,0.00,,,0.00,,2013-06-12 23:42:00,
2013-06-12 16:52:00,66.0,35.0,30.11,West,271,11.0,18.0,32,0.00,,,0.00,,2013-06-12 23:52:00,
2013-06-12 17:01:00,66.0,35.0,30.12,WNW,302,14.0,20.0,32,0.00,,,0.00,,2013-06-13 00:01:00,
2013-06-12 17:11:00,65.0,35.0,30.12,West,277,9.0,18.0,33,0.00,,,0.00,,2013-06-13 00:11:00,
2013-06-12 17:22:00,65.0,34.0,30.12,WNW,285,10.0,16.0,32,0.00,,,0.00,,2013-06-13 00:22:00,
2013-06-12 17:32:00,64.0,35.0,30.12,WNW,293,11.0,20.0,34,0.00,,,0.00,,2013-06-13 00:32:00,
2013-06-12 17:42:00,64.0,34.0,30.12,WNW,287,11.0,20.0,33,0.00,,,0.00,,2013-06-13 00:42:00,
2013-06-12 17:52:00,64.0,35.0,30.12,WNW,294,10.0,17.0,34,0.00,,,0.00,,2013-06-13 00:52:00,
2013-06-12 18:01:00,64.0,35.0,30.12,WNW,296,13.0,21.0,34,0.00,,,0.00,,2013-06-13 01:01:00,
2013-06-12 18:11:00,63.0,36.0,30.11,WNW,288,11.0,20.0,36,0.00,,,0.00,,2013-06-13 01:11:00,
2013-06-12 18:22:00,63.0,35.0,30.12,NW,306,12.0,17.0,35,0.00,,,0.00,,2013-06-13 01:22:00,
2013-06-12 18:32:00,62.0,35.0,30.12,NW,305,10.0,15.0,37,0.00,,,0.00,,2013-06-13 01:32:00,
2013-06-12 18:42:00,61.0,36.0,30.12,West,269,10.0,21.0,39,0.00,,,0.00,,2013-06-13 01:42:00,
2013-06-12 18:52:00,60.0,36.0,30.12,WNW,302,13.0,21.0,40,0.00,,,0.00,,2013-06-13 01:52:00,
2013-06-12 19:01:00,59.0,36.0,30.12,WNW,296,14.0,21.0,42,0.00,,,0.00,,2013-06-13 02:01:00,
2013-06-12 19:11:00,59.0,36.0,30.13,NW,309,12.0,22.0,42,0.00,,,0.00,,2013-06-13 02:11:00,
2013-06-12 19:22:00,58.0,36.0,30.13,WNW,296,9.0,15.0,44,0.00,,,0.00,,2013-06-13 02:22:00,
2013-06-12 19:32:00,57.0,35.0,30.13,WNW,300,13.0,20.0,44,0.00,,,0.00,,2013-06-13 02:32:00,
2013-06-12 19:42:00,56.0,36.0,30.14,WNW,292,9.0,20.0,46,0.00,,,0.00,,2013-06-13 02:42:00,
2013-06-12 19:52:00,56.0,36.0,30.14,WNW,296,12.0,20.0,46,0.00,,,0.00,,2013-06-13 02:52:00,
2013-06-12 20:01:00,55.0,36.0,30.14,NW,309,11.0,20.0,48,0.00,,,0.00,,2013-06-13 03:01:00,
2013-06-12 20:11:00,55.0,36.0,30.15,NW,309,11.0,18.0,49,0.00,,,0.00,,2013-06-13 03:11:00,
2013-06-12 20:22:00,54.0,35.0,30.15,WNW,297,9.0,17.0,48,0.00,,,0.00,,2013-06-13 03:22:00,
2013-06-12 20:32:00,54.0,35.0,30.15,WNW,298,9.0,18.0,49,0.00,,,0.00,,2013-06-13 03:32:00,
2013-06-12 20:42:00,53.0,35.0,30.15,NW,323,9.0,18.0,50,0.00,,,0.00,,2013-06-13 03:42:00,
2013-06-12 20:52:00,53.0,35.0,30.15,WNW,293,10.0,18.0,50,0.00,,,0.00,,2013-06-13 03:52:00,
2013-06-12 21:01:00,53.0,35.0,30.15,WNW,293,10.0,18.0,50,0.00,,,0.00,,2013-06-13 04:01:00,
2013-06-12 21:11:00,52.0,34.0,30.16,NW,315,8.0,16.0,50,0.00,,,0.00,,2013-06-13 04:11:00,
2013-06-12 21:22:00,51.0,34.0,30.16,NW,316,8.0,13.0,51,0.00,,,0.00,,2013-06-13 04:22:00,
2013-06-12 21:32:00,51.0,34.0,30.16,NW,312,5.0,12.0,52,0.00,,,0.00,,2013-06-13 04:32:00,
2013-06-12 21:43:00,51.0,34.0,30.16,WNW,302,7.0,16.0,52,0.00,,,0.00,,2013-06-13 04:43:00,
2013-06-12 21:53:00,51.0,34.0,30.16,NW,322,10.0,16.0,53,0.00,,,0.00,,2013-06-13 04:53:00,
2013-06-12 22:01:00,51.0,35.0,30.17,WNW,302,6.0,12.0,55,0.00,,,0.00,,2013-06-13 05:01:00,
2013-06-12 22:11:00,51.0,35.0,30.17,NW,306,9.0,13.0,55,0.00,,,0.00,,2013-06-13 05:11:00,
2013-06-12 22:23:00,51.0,36.0,30.17,WNW,302,6.0,15.0,56,0.00,,,0.00,,2013-06-13 05:23:00,
2013-06-12 22:32:00,50.0,35.0,30.18,NW,306,8.0,14.0,56,0.00,,,0.00,,2013-06-13 05:32:00,
2013-06-12 22:42:00,50.0,36.0,30.18,WNW,287,8.0,15.0,59,0.00,,,0.00,,2013-06-13 05:42:00,
2013-06-12 22:52:00,50.0,37.0,30.18,WNW,291,6.0,13.0,60,0.00,,,0.00,,2013-06-13 05:52:00,
2013-06-12 23:01:00,50.0,38.0,30.17,WNW,285,8.0,14.0,62,0.00,,,0.00,,2013-06-13 06:01:00,
2013-06-12 23:11:00,49.0,37.0,30.17,West,271,9.0,13.0,62,0.00,,,0.00,,2013-06-13 06:11:00,
2013-06-12 23:21:00,49.0,37.0,30.17,West,277,9.0,14.0,63,0.00,,,0.00,,2013-06-13 06:21:00,
2013-06-12 23:32:00,49.0,37.0,30.17,West,263,7.0,15.0,63,0.00,,,0.00,,2013-06-13 06:32:00,
2013-06-12 23:44:00,49.0,37.0,30.17,WNW,290,7.0,12.0,63,0.00,,,0.00,,2013-06-13 06:44:00,
2013-06-12 23:52:00,48.0,36.0,30.17,WNW,285,7.0,12.0,64,0.00,,,0.00,,2013-06-13 06:52:00,